This demonstration page uses our WeatherBlox Daily Observations layout. Learn more.

Left ArrowRight Arrow

Hourly Observations for May 21, 2020

Temp ( °F °C ) Dew Point ( °F °C ) Humidity (%) Winds ( mph kmh ) Pressure ( in mb ) Visibility ( mi km ) Precip ( " mm )
12:52 am 00:52 Cloudy 61 16.1 57 13.9 87 87 SE 15 24 29.95 1014 10 16 0.00 0.00
1:52 am 01:52 Cloudy 61 16.1 57 13.9 87 87 SE 10 17 29.95 1014 10 16 0.00 0.00
2:52 am 02:52 Cloudy 61 16.1 56 13.3 84 84 SE 10 17 29.95 1014 10 16 0.00 0.00
3:52 am 03:52 Cloudy 61 16.1 56 13.3 84 84 SE 10 17 29.97 1015 10 16 0.00 0.00
4:52 am 04:52 Cloudy 61 16.1 56 13.3 84 84 SE 9 15 29.99 1016 10 16 0.00 0.00
5:52 am 05:52 Cloudy 61 16.1 56 13.3 84 84 ESE 6 9 29.99 1016 10 16 0.00 0.00
6:52 am 06:52 Cloudy 60 15.6 57 13.9 90 90 ESE 10 17 30.00 1016 10 16 0.00 0.00
7:38 am 07:38 Cloudy 60 15.6 57 13.9 90 90 SE 9 15 30.00 1016 10 16 0.00 0.00
7:52 am 07:52 Cloudy 60 15.6 57 13.9 90 90 SE 10 17 29.99 1016 10 16 0.00 0.00
8:52 am 08:52 Cloudy 61 16.1 57 13.9 87 87 ESE 14 22 29.98 1015 10 16 0.00 0.00
9:52 am 09:52 Cloudy 62 16.7 57 13.9 84 84 ESE 14 22 29.98 1015 10 16 0.00 0.00
10:01 am 10:01 Cloudy 62 16.7 57 13.9 84 84 ESE 15 24 29.97 1015 10 16 0.00 0.00
10:52 am 10:52 Cloudy 62 16.7 57 13.9 84 84 ESE 13 20 29.96 1015 10 16 0.00 0.00
11:47 am 11:47 Mostly Cloudy 64 18 57 14 78 78 SE 13 20 29.94 1014 10 16 0.00 0.00
11:52 am 11:52 Mostly Cloudy 66 18.9 57 13.9 73 73 SE 13 20 29.95 1014 10 16 0.00 0.00
12:52 pm 12:52 Cloudy 67 19.4 57 13.9 71 71 ESE 13 20 29.95 1014 10 16 0.00 0.00
1:52 pm 13:52 Mostly Cloudy 70 21.1 57 13.9 64 64 SE 17 28 29.93 1014 10 16 0.00 0.00
2:52 pm 14:52 Mostly Cloudy 69 20.6 57 13.9 66 66 SE 12 19 29.91 1013 10 16 0.00 0.00
3:52 pm 15:52 Mostly Cloudy 71 21.7 56 13.3 59 59 SE 9 15 29.91 1013 10 16 0.00 0.00
4:52 pm 16:52 Cloudy 71 21.7 57 13.9 61 61 ESE 12 19 29.90 1013 10 16 0.00 0.00
5:52 pm 17:52 Cloudy 71 21.7 57 13.9 61 61 E 13 20 29.90 1012 10 16 0.00 0.00
6:52 pm 18:52 Cloudy 69 20.6 56 13.3 63 63 E 17 28 29.89 1012 10 16 0.00 0.00
7:52 pm 19:52 Cloudy 68 20 56 13.3 65 65 SE 13 20 29.91 1013 10 16 0.00 0.00
8:52 pm 20:52 Cloudy 66 18.9 57 13.9 73 73 SE 12 19 29.92 1013 10 16 0.00 0.00
9:52 pm 21:52 Cloudy 65 18.3 57 13.9 76 76 SE 13 20 29.92 1013 10 16 0.00 0.00
10:52 pm 22:52 Cloudy with Light Rain 63 17.2 57 13.9 81 81 SSE 14 22 29.91 1013 10 16 0.00 0.00
11:52 pm 23:52 Cloudy 63 17.2 57 13.9 81 81 SSE 10 17 29.92 1013 10 16 0.00 0.00

Powered by AerisWeather